Simultaneous Nadir Overpasses (SNOs) Predictions

Prediction of SNOs between GOES-17 and NOAA-19 Satellite Orbit:

Table of predicted SNOs for the next 14.0 days since TLE Epoch: 7/16/2022
Index Date Time (GOES-17) GOES-17 Lat,Lon NOAA-19 Lat,Lon Distance(km) Time Diff (sec)
1 07/16/2022 17:01:47 0.03,-137.29 0.02,-137.17 13.23 80
2 07/17/2022 16:49:57 0.03,-137.30 -0.70,-134.29 343.68 80
3 07/20/2022 05:08:00 -0.02,-137.29 -0.47,-139.20 217.24 80
4 07/21/2022 04:58:48 -0.02,-137.30 0.19,-136.30 113.11 80
5 07/22/2022 04:46:57 -0.02,-137.30 0.85,-133.41 443.27 80
6 07/23/2022 17:16:32 0.02,-137.30 0.94,-141.13 437.90 80
7 07/24/2022 17:04:42 0.02,-137.30 0.21,-138.25 108.20 80
8 07/25/2022 16:55:30 0.02,-137.29 -0.45,-135.36 221.43 80
9 07/28/2022 05:16:12 -0.02,-137.26 -0.74,-140.26 342.23 80
10 07/29/2022 05:04:21 -0.01,-137.25 -0.01,-137.38 13.89 80
